Tracking 30995 objects as of 5-Jul-2025
HD Live streaming from Space Station
objects crossing your sky now

OBJECT D

Track OBJECT D now!
10-day predictions


NORAD ID: 61230
Int'l Code: 2024-173D
Perigee: 458.6 km
Apogee: 502.9 km
Inclination: 97.4 °
Period: 94.1 minutes
Semi major axis: 6851 km
RCS: Unknown
Launch date: September 24, 2024
Source: People's Republic of China (PRC)
Launch site: Yellow Sea Launch Area, China (YSLA)
Your satellite tracking list
NOAA 16 DEB
Track 1 satellite(s)




NASA's NSSDC Master Catalog

Two Line Element Set (TLE):
1 61230U 24173D   25186.50104482  .00017233  00000-0  57283-3 0  9999
2 61230  97.3868 266.0937 0032349  28.7044 331.5969 15.30735027 43628
Source of the keplerian elements: AFSPC